• en Belgique
  • Liste des pays
  • À 7 jours
  • Température de l'eau
  • Carte satellitaire
  • Carte météo
  • Widgets météo
  • user-avatar
    Se connecter

    Météo par heure à Townsville

    Ce jour, 22 Mai, Mardi

    Heure Température Précipitation Vent Pression Humidité
    00:00 +18°C° 0 mm 4 m/s 758 mmHg 73%
    01:00 +18°C° 0 mm 4 m/s 758 mmHg 69%
    02:00 +17°C° 0 mm 4 m/s 758 mmHg 64%
    03:00 +17°C° 0 mm 4 m/s 758 mmHg 59%
    04:00 +17°C° 0 mm 4 m/s 757 mmHg 62%
    05:00 +15°C° 0 mm 4 m/s 758 mmHg 58%
    06:00 +15°C° 0 mm 4 m/s 758 mmHg 55%
    07:00 +14°C° 0 mm 5 m/s 758 mmHg 51%
    08:00 +17°C° 0 mm 5 m/s 758 mmHg 44%
    09:00 +20°C° 0 mm 5 m/s 758 mmHg 38%
    10:00 +23°C° 0 mm 5 m/s 758 mmHg 31%
    11:00 +25°C° 0 mm 5 m/s 758 mmHg 29%
    12:00 +27°C° 0 mm 4 m/s 757 mmHg 26%
    13:00 +28°C° 0 mm 4 m/s 757 mmHg 23%
    14:00 +28°C° 0 mm 4 m/s 757 mmHg 24%
    15:00 +28°C° 0 mm 4 m/s 756 mmHg 25%
    16:00 +28°C° 0 mm 4 m/s 756 mmHg 26%
    17:00 +25°C° 0 mm 4 m/s 756 mmHg 36%
    18:00 +22°C° 0 mm 4 m/s 757 mmHg 46%
    19:00 +19°C° 0 mm 4 m/s 757 mmHg 55%
    20:00 +19°C° 0 mm 4 m/s 757 mmHg 60%
    21:00 +18°C° 0 mm 4 m/s 757 mmHg 64%
    22:00 +17°C° 0 mm 4 m/s 758 mmHg 68%
    23:00 +17°C° 0 mm 4 m/s 758 mmHg 69%

    Demain, 23 Mai, Mercredi

    Heure Température Précipitation Vent Pression Humidité
    00:00 +17°C° 0 mm 4 m/s 758 mmHg 70%
    01:00 +15°C° 0 mm 4 m/s 758 mmHg 71%
    02:00 +15°C° 0 mm 4 m/s 757 mmHg 69%
    03:00 +15°C° 0 mm 4 m/s 757 mmHg 67%
    04:00 +14°C° 0 mm 4 m/s 757 mmHg 65%
    05:00 +14°C° 0 mm 4 m/s 757 mmHg 64%
    06:00 +14°C° 0 mm 4 m/s 758 mmHg 63%
    07:00 +14°C° 0 mm 4 m/s 758 mmHg 62%
    08:00 +18°C° 0 mm 4 m/s 758 mmHg 56%
    09:00 +20°C° 0 mm 4 m/s 758 mmHg 51%
    10:00 +23°C° 0 mm 5 m/s 758 mmHg 45%
    11:00 +25°C° 0 mm 4 m/s 758 mmHg 41%
    12:00 +27°C° 0 mm 4 m/s 757 mmHg 36%
    13:00 +28°C° 0 mm 4 m/s 757 mmHg 31%
    14:00 +28°C° 0 mm 4 m/s 756 mmHg 34%
    15:00 +27°C° 0 mm 5 m/s 756 mmHg 36%
    16:00 +27°C° 0 mm 5 m/s 755 mmHg 39%
    17:00 +25°C° 0 mm 5 m/s 756 mmHg 52%
    18:00 +21°C° 0 mm 5 m/s 756 mmHg 66%
    19:00 +19°C° 0 mm 5 m/s 756 mmHg 80%
    20:00 +19°C° 0 mm 5 m/s 757 mmHg 84%
    21:00 +17°C° 0 mm 5 m/s 757 mmHg 87%
    22:00 +17°C° 0 mm 5 m/s 757 mmHg 91%
    23:00 +17°C° 0 mm 5 m/s 757 mmHg 92%

    Après-demain, 24 Mai, Jeudi

    Heure Température Précipitation Vent Pression Humidité
    00:00 +16°C° 0 mm 5 m/s 757 mmHg 93%
    01:00 +16°C° 0 mm 5 m/s 757 mmHg 95%
    02:00 +16°C° 0 mm 5 m/s 756 mmHg 95%
    03:00 +15°C° 0 mm 5 m/s 756 mmHg 96%
    04:00 +15°C° 0 mm 4 m/s 756 mmHg 96%
    05:00 +15°C° 0 mm 4 m/s 756 mmHg 95%
    06:00 +17°C° 0 mm 4 m/s 756 mmHg 95%
    07:00 +17°C° 0 mm 4 m/s 756 mmHg 94%
    08:00 +19°C° 0 mm 4 m/s 757 mmHg 85%
    09:00 +21°C° 0 mm 5 m/s 757 mmHg 76%
    10:00 +23°C° 0 mm 5 m/s 757 mmHg 67%
    11:00 +25°C° 0 mm 5 m/s 757 mmHg 64%
    12:00 +26°C° 0 mm 5 m/s 756 mmHg 60%
    13:00 +27°C° 0 mm 5 m/s 756 mmHg 57%
    14:00 +26°C° 0 mm 5 m/s 755 mmHg 58%
    15:00 +26°C° 0 mm 5 m/s 755 mmHg 59%
    16:00 +24°C° 0 mm 6 m/s 754 mmHg 61%
    17:00 +23°C° 0 mm 5 m/s 755 mmHg 67%
    18:00 +22°C° 0 mm 5 m/s 755 mmHg 73%
    19:00 +21°C° 0 mm 5 m/s 756 mmHg 79%
    20:00 +21°C° 0 mm 5 m/s 756 mmHg 81%
    21:00 +20°C° 0 mm 5 m/s 756 mmHg 84%
    22:00 +20°C° 0 mm 5 m/s 757 mmHg 86%
    23:00 +20°C° 0,1 mm 4 m/s 756 mmHg 88%

    25 Mai, Vendredi

    Heure Température Précipitation Vent Pression Humidité
    00:00 +20°C° 0,1 mm 4 m/s 756 mmHg 89%
    01:00 +19°C° 0,1 mm 4 m/s 756 mmHg 91%
    02:00 +19°C° 0,1 mm 4 m/s 755 mmHg 93%
    03:00 +19°C° 0,1 mm 4 m/s 755 mmHg 95%
    04:00 +19°C° 0,1 mm 4 m/s 755 mmHg 96%
    05:00 +19°C° 0,1 mm 4 m/s 755 mmHg 96%
    06:00 +19°C° 0,1 mm 4 m/s 755 mmHg 96%
    07:00 +19°C° 0,1 mm 4 m/s 756 mmHg 96%
    08:00 +21°C° 0,2 mm 4 m/s 756 mmHg 90%
    09:00 +23°C° 0,2 mm 5 m/s 756 mmHg 83%
    10:00 +25°C° 0,2 mm 5 m/s 756 mmHg 76%
    11:00 +25°C° 0,6 mm 5 m/s 756 mmHg 76%
    12:00 +26°C° 0,6 mm 5 m/s 755 mmHg 75%
    13:00 +26°C° 0,6 mm 5 m/s 754 mmHg 75%
    14:00 +26°C° 0,8 mm 5 m/s 754 mmHg 77%
    15:00 +25°C° 0,8 mm 5 m/s 754 mmHg 78%
    16:00 +25°C° 0,8 mm 5 m/s 754 mmHg 80%
    17:00 +23°C° 0,2 mm 5 m/s 754 mmHg 85%
    18:00 +21°C° 0,2 mm 5 m/s 755 mmHg 90%
    19:00 +20°C° 0,2 mm 5 m/s 755 mmHg 95%
    20:00 +20°C° 0,1 mm 5 m/s 756 mmHg 95%
    21:00 +20°C° 0,1 mm 5 m/s 756 mmHg 96%
    22:00 +19°C° 0,1 mm 6 m/s 757 mmHg 96%
    23:00 +19°C° 0 mm 5 m/s 756 mmHg 97%

    26 Mai, Samedi

    Heure Température Précipitation Vent Pression Humidité
    00:00 +19°C° 0 mm 5 m/s 756 mmHg 97%
    01:00 +19°C° 0 mm 5 m/s 756 mmHg 97%
    02:00 +17°C° 0 mm 5 m/s 755 mmHg 98%
    03:00 +17°C° 0 mm 5 m/s 755 mmHg 98%
    04:00 +17°C° 0 mm 5 m/s 755 mmHg 98%
    05:00 +17°C° 0 mm 5 m/s 755 mmHg 98%
    06:00 +17°C° 0 mm 5 m/s 756 mmHg 98%
    07:00 +17°C° 0 mm 5 m/s 756 mmHg 97%
    08:00 +20°C° 0,1 mm 6 m/s 756 mmHg 93%
    09:00 +21°C° 0,1 mm 6 m/s 757 mmHg 89%
    10:00 +22°C° 0,1 mm 6 m/s 757 mmHg 85%
    11:00 +23°C° 0,1 mm 6 m/s 756 mmHg 81%
    12:00 +25°C° 0,1 mm 5 m/s 756 mmHg 78%
    13:00 +25°C° 0,1 mm 5 m/s 755 mmHg 74%
    14:00 +26°C° 0,1 mm 5 m/s 755 mmHg 74%
    15:00 +26°C° 0,1 mm 5 m/s 755 mmHg 73%
    16:00 +26°C° 0,1 mm 5 m/s 754 mmHg 72%
    17:00 +25°C° 0,1 mm 5 m/s 755 mmHg 78%
    18:00 +22°C° 0,1 mm 6 m/s 755 mmHg 85%
    19:00 +21°C° 0,1 mm 6 m/s 756 mmHg 91%
    20:00 +21°C° 0 mm 6 m/s 756 mmHg 92%
    21:00 +20°C° 0 mm 6 m/s 756 mmHg 93%
    22:00 +20°C° 0 mm 5 m/s 756 mmHg 94%
    23:00 +20°C° 0 mm 5 m/s 756 mmHg 95%

    27 Mai, Dimanche

    Heure Température Précipitation Vent Pression Humidité
    00:00 +19°C° 0 mm 5 m/s 756 mmHg 95%
    01:00 +19°C° 0 mm 5 m/s 755 mmHg 95%
    02:00 +19°C° 0,1 mm 5 m/s 755 mmHg 96%
    03:00 +19°C° 0,1 mm 5 m/s 755 mmHg 96%
    04:00 +19°C° 0,1 mm 5 m/s 755 mmHg 96%
    05:00 +19°C° 0,1 mm 5 m/s 756 mmHg 96%
    06:00 +19°C° 0,1 mm 5 m/s 756 mmHg 96%
    07:00 +19°C° 0,1 mm 5 m/s 756 mmHg 97%
    08:00 +21°C° 0,1 mm 5 m/s 756 mmHg 92%
    09:00 +22°C° 0,1 mm 5 m/s 756 mmHg 87%
    10:00 +23°C° 0,1 mm 5 m/s 757 mmHg 83%
    11:00 +25°C° 0,3 mm 5 m/s 756 mmHg 80%
    12:00 +25°C° 0,3 mm 5 m/s 755 mmHg 77%
    13:00 +26°C° 0,3 mm 5 m/s 755 mmHg 75%
    14:00 +26°C° 0,4 mm 5 m/s 755 mmHg 78%
    15:00 +25°C° 0,4 mm 5 m/s 755 mmHg 81%
    16:00 +23°C° 0,4 mm 5 m/s 755 mmHg 84%
    17:00 +23°C° 0,3 mm 5 m/s 755 mmHg 87%
    18:00 +22°C° 0,3 mm 5 m/s 755 mmHg 91%
    19:00 +21°C° 0,3 mm 5 m/s 756 mmHg 94%
    20:00 +21°C° 0,2 mm 5 m/s 756 mmHg 94%
    21:00 +20°C° 0,2 mm 5 m/s 756 mmHg 95%
    22:00 +20°C° 0,2 mm 5 m/s 756 mmHg 95%
    23:00 +20°C° 0,1 mm 5 m/s 756 mmHg 96%
    Voir plus